Location: Ravensburg
(48.5621°N, 13.4088°E)
Time: 18:05:53
(UTC+02:00)

ISS - Pass Details

Date: 29 March 2017
Orbit: 401 x 409 km, 51.6° (Epoch: 29 April)

Event Time Altitude Azimuth Distance (km) Brightness Sun altitude
Rises 19:53:44 0° 202° (SSW) 2,306 0.2 -4.3°
Reaches altitude 10° 19:56:17 10° 181° (S) 1,453 -1.1 -4.7°
Maximum altitude 19:58:29 17° 138° (SE) 1,114 -2.1 -5.0°
Drops below altitude 10° 20:00:41 10° 96° (E) 1,464 -1.7 -5.4°
Enters shadow 20:01:35 - 86° (E) 1,737 -1.3 -5.5°
